Het weer op Woensdrecht:2014/10/01 05:32 EHWO 010532Z AUTO 23006KT 2800 R25/1000 BR BKN018 OVC021 14/13 Q1025 YLO 23006KT 2000 BR SCT018 TEMPO TL0700 0500 BCFG
Het weer op Amsterdam:2014/10/01 05:25 EHAM 010525Z 18006KT 1400 R18C/P2000N R27/0275N R18R/1400U R06/P2000N BCFG FEW013 12/12 Q1024 TEMPO 0700

Menu promotie
· Startpagina
· Verslag FLY-IN 2009
· De vloot
· Kennismaken


Buien Radar


Picasa foto link
ACV externe fotolink


Inloggen voor leden
WelkomAnonymous!


Lid nummer    
Wachtwoord 
Code: Code
Type Code in
[Wachtwoord vergeten?]


 
Sorry, deze module is niet actief (acv_addon_4)

[ Ga terug ]
copyright (c) ACV 2006 - 2014

All logos and trademarks in this site are property of their respective owner. The comments are property of their posters, all the rest 2005 by me.
PHP-Nuke Copyright © 2005 by Francisco Burzi. This is free software, and you may redistribute it under the GPL. PHP-Nuke comes with absolutely no warranty, for details, see the license.
Pagina Rendering: 0.31 Seconden